Location: Nashville
(36.1660°N, 86.7840°W)
Time: 12:41:56
(UTC-06:00)

X-37B - Visible Passes

Search period start: 07 December 2021 00:00
Search period end: 17 December 2021 00:00
Orbit: 330 x 341 km, 45.0° (Epoch: 20 November)

Date Brightness Start Highest point End Pass type
(mag) Time Alt. Az. Time Alt. Az. Time Alt. Az.
07 Dec 0.3 17:18:01 10° WSW 17:20:52 76° NNW 17:23:02 16° NE visible
08 Dec 1.7 17:38:49 10° W 17:41:24 30° NNW 17:42:38 21° NNE visible
09 Dec 2.4 18:00:02 10° WNW 18:02:07 18° NNW 18:02:11 18° N visible
10 Dec 3.2 18:21:15 10° NW 18:21:44 12° NNW 18:21:44 12° NNW visible
11 Dec 2.4 17:05:26 10° WNW 17:07:32 18° NNW 17:09:38 10° NE visible
12 Dec 2.6 17:26:40 10° NW 17:28:20 14° N 17:29:35 12° NNE visible
13 Dec 2.6 17:47:28 10° NNW 17:49:10 14° N 17:49:10 14° N visible
14 Dec 2.7 18:07:49 10° NW 18:08:48 15° NNW 18:08:48 15° NNW visible
15 Dec 3.1 18:28:00 10° NW 18:28:32 14° NW 18:28:32 14° NW visible
16 Dec 2.1 17:13:14 10° NW 17:15:24 19° NNE 17:17:08 12° ENE visible
16 Dec 3.7 18:48:19 10° WNW 18:48:23 11° WNW 18:48:23 11° WNW visible
